Flag for United Kingdom Weather past 2 weeks in London, England, United Kingdom

Now
70 °F

Partly sunny.


Feels Like: 70 °F
Forecast: 59 / 69 °F
Wind: 15 mph from Southwest

Location: Northolt

Current Time: Jul 7, 2015 at 12:54:26 PM

Latest Report: Jul 7, 2015 at 11:50 AM


Visibility: N/A

Pressure: 29.74 "Hg

Humidity: 60%

Dew point: 55 °F

Location of LondonLocation

Historic Weather in London — Graph

°F

London temperature yesterday

Maximum temperature yesterday: 73 °F (at 3:50 PM)
Minimum temperature yesterday: 54 °F (at 2:50 AM)
Average temperature yesterday: 64 °F

Past Weeks' High & Low Weather Summary

 TemperatureHumidityPressure
High95 °F (Jul 1, 2:50 PM)100% (Jul 4, 2:50 AM)30.30 "Hg (Jul 4, 2:50 AM)
Low52 °F (Jun 25, 2:50 AM)26% (Jul 1, 2:50 PM)29.74 "Hg (Jul 7, 11:50 AM)
Average66 °F65%30.06 "Hg
* Reported Jun 22 11:50 AM — Jul 7 11:50 AM, London, Weather by CustomWeather, © 2015

Note: Actual official high and low records may vary slightly from our data, if they occured in-between our weather recording intervals... More about our weather records

Advertising

London weather history for previous 24 hours

 ConditionsComfort  
Time TempWeatherWind HumidityBarometerVisibility
11:50 AM
Tue, Jul 7
70 °FPartly sunny.15 mph60%29.74 "HgN/A
10:50 AM68 °FScattered clouds.15 mph69%29.77 "HgN/A
9:50 AM64 °FBroken clouds.10 mph88%29.77 "HgN/A
8:50 AM64 °FLight rain. Partly sunny.10 mph78%29.80 "HgN/A
7:50 AM64 °FPartly sunny.9 mph73%29.80 "HgN/A
6:50 AM63 °FBroken clouds.7 mph77%29.83 "HgN/A
5:50 AM61 °FPartly sunny.6 mph77%29.83 "HgN/A
4:50 AM59 °FPassing clouds.6 mph77%29.86 "HgN/A
3:50 AM59 °FPassing clouds.5 mph77%29.89 "HgN/A
2:50 AM59 °FClear.3 mph77%29.89 "HgN/A
1:50 AM59 °FClear.3 mph77%29.92 "HgN/A
12:50 AM61 °FClear.6 mph72%29.92 "HgN/A
11:50 PM
Mon, Jul 6
61 °FClear.6 mph72%29.95 "Hg10 mi
10:50 PM63 °FClear.6 mph68%29.98 "HgN/A
9:50 PM64 °FSunny.10 mph60%29.98 "Hg10 mi
8:50 PM66 °FSunny.10 mph60%29.98 "Hg10 mi
7:50 PM70 °FSunny.12 mph53%29.98 "Hg10 mi
6:50 PM72 °FSunny.10 mph50%29.98 "Hg10 mi
5:50 PM72 °FSunny.12 mph44%30.01 "Hg10 mi
4:50 PM73 °FSunny.15 mph47%30.04 "Hg10 mi
3:50 PM73 °FBroken clouds.13 mph44%30.07 "HgN/A
2:50 PM72 °FPartly sunny.12 mph47%30.07 "HgN/A
1:50 PM70 °FPartly sunny.12 mph50%30.07 "HgN/A
12:50 PM72 °FBroken clouds.13 mph44%N/AN/A
Weather by CustomWeather, © 2015

See weather overviewHow to use our weather pages